Regional Weather Roundup
Issued by NWS

Home | Current Version | Previous Version | Text Only | Print | Product List | Glossary On
Versions: 1 2 3 4 5 6 7 8 9 10 11 12 13 14 15 16 17 18 19 20 21 22 23 24 25 26 27 28 29 30 31 32 33 34 35 36 37 38 39 40 41 42 43 44 45 46 47 48 49 50
000
ASUS42 KTBW 290910
RWRFL
FLORIDA REGIONAL WEATHER ROUNDUP
NATIONAL WEATHER SERVICE TAMPA BAY RUSKIN FL
500 AM EDT FRI AUG 29 2014

NOTE: "FAIR" INDICATES FEW OR NO CLOUDS BELOW 12,000 FEET WITH NO
SIGNIFICANT WEATHER AND/OR OBSTRUCTIONS TO VISIBILITY.


FLZ001>010-012>015-112-114-115-291000-
PANHANDLE FLORIDA

CITY           SKY/WX    TMP DP  RH WIND       PRES   REMARKS
PENSACOLA      CLEAR     75  73  93 NE6       29.96F
PENSACOLA NAS  PTCLDY    75  73  93 CALM      29.95F
MILTON NAS     CLEAR     70  67  90 CALM      29.98S FOG
CRESTVIEW      CLEAR     69  67  93 CALM      30.00F
DUKE FIELD     FAIR      70  69  98 N2        29.98F
VALPARAISO     PTCLDY    75  71  87 NE7       29.96F
MARY ESTHER    CLEAR     73  68  83 NW3       29.95F
TRI COUNTY     LGT RAIN  69  68  96 CALM      30.00F
PANAMA CITY    FAIR      73  69  87 N3        29.96F
TYNDALL AFB    CLEAR     75  73  95 NE6       29.98S
APALACHICOLA   MOCLDY    74  70  87 NE7       29.97S

STATION/POSITION SKY/WX   TEMP    WIND        PRES    WAVE   SWELL
                          AIR SEA DIR/SP/G            HT/PER HT/PER
                          (F)     (DEG/KT/KT) (MB)    (FT/S) (FT/S)
30.1N   87.6W              84 85  140/ 10/ 12 1014.3F   3/ 5   2/ 5
29.2N   88.2W              85 85  120/ 14/ 16 1013.9S
28.8N   86.0W              85 86  120/ 12/ 14 1013.5F   3/ 5   2/ 6
PANAMA CITY BEAC           79 85   50/  6/  7 1014.6F
CAPE SAN BLAS    NOT AVBL
TOWER C                    84      90/ 12/ 13 1014.5F
28.5N   84.5W              86 86  130/  6/  8 1014.3S   2/ 6   2/ 6

$$
FLZ011-016>038-118-127-128-134-139-239-291000-
NORTH FLORIDA

CITY           SKY/WX    TMP DP  RH WIND       PRES   REMARKS
MARIANNA       PTCLDY    72  71  97 CALM      29.99F
TALLAHASSEE    CLEAR     69  64  84 CALM      30.00S
PERRY          CLEAR     73  70  88 E5        30.00S
CROSS CITY       N/A     78  73  84 E5        29.99F
LAKE CITY      FAIR      68  68 100 SE3       30.02S
GAINESVILLE    MOCLDY    72  71  97 CALM      30.02S
MAYPORT NAS    CLEAR     73  71  93 CALM      30.01S
JACKSONVILLE   CLEAR     69  68  96 CALM      30.01S
JAX NAS        CLEAR     82  75  79 S5        30.02S
JAX CRAIG      CLEAR     72  69  90 CALM      30.02R
JAX CECIL      CLEAR     66  64  94 CALM      30.02S
FERNANDINA BEA FAIR      73  70  88 CALM      30.00S
ST AUGUSTINE   CLEAR     76  73  91 CALM      30.02S

STATION/POSITION SKY/WX   TEMP    WIND        PRES    WAVE   SWELL
                          AIR SEA DIR/SP/G            HT/PER HT/PER
                          (F)     (DEG/KT/KT) (MB)    (FT/S) (FT/S)
SHELL POINT                75      30/  4/  5   N/A
KEATON BEACH               74     100/  6/  8 1015.7F
CEDAR KEY                  82     130/ 15/ 16 1016.3S
FERNANDINA                 77 84  250/  3/  4 1015.8S
30.7N   81.3W                 84                N/A     3/ 9
MAYPORT                    78 83  240/  1/  3   N/A
31.4N   80.9W              83 84  220/  8/ 10 1016.4R   3/ 9   3/ 9
ST AUGUSTINE               80     200/  4/  5 1017.1R

$$
FLZ040-043>046-052-053-057-058-063-144-291000-
INTERIOR CENTRAL FLORIDA

CITY           SKY/WX    TMP DP  RH WIND       PRES   REMARKS
OCALA          PTCLDY    77  73  88 NE3       30.01F
LEESBURG       MOCLDY    79  76  90 NE5       30.01S
SANFORD        PTCLDY    77  75  93 SE3       30.01R
ORLANDO EXEC   MOCLDY    78  75  90 SE3       30.01S
ORLANDO INTL   PTCLDY    76  75  97 CALM      30.01S
WINTER HAVEN   CLEAR     77  73  87 E7        30.01F
LAKELAND       CLEAR     77  75  94 E3        30.00S
BARTOW         FAIR      73  73 100 E5        30.01S
OKEECHOBEE       N/A     72  72 100 MISG        N/A

$$
FLZ041-047-054-059-064-141-147-291000-
EAST CENTRAL FLORIDA

CITY           SKY/WX    TMP DP  RH WIND       PRES   REMARKS
DAYTONA BEACH  PTCLDY    76  75  97 CALM      30.01S
DELAND         MOSUNNY   75  73  94 CALM      30.02S
JFK SPACE CTR  PTCLDY    79  74  84 S2        30.01S
CAPE CANAVERAL CLEAR     78  73  84 CALM      30.00S
PATRICK AFB    CLEAR     80  73  78 SE3       30.01S
MELBOURNE      CLEAR     79  71  76 CALM      30.00F
VERO BEACH     CLEAR     73  72  96 CALM      30.01S
FT PIERCE      CLEAR     73  70  90 CALM      30.01R
STUART         PTCLDY    75  73  94 CALM      30.02S

STATION/POSITION SKY/WX   TEMP    WIND        PRES    WAVE   SWELL
                          AIR SEA DIR/SP/G            HT/PER HT/PER
                          (F)     (DEG/KT/KT) (MB)    (FT/S) (FT/S)
28.5N   80.2W              82 83  220/  4/  6 1016.5F
28.9N   78.5W              82 83  190/  8/  8 1016.8S   4/ 8   3/ 8
TRIDENT PIER               80 84  210/  2/  4 1015.7R
28.4N   80.5W                 83                N/A     2/ 9
27.6N   80.2W                 85                N/A     3/ 9

$$
FLZ050-056-061-142-242-148-248-149-249-151-251-155-255-
160-260-291000-
WEST CENTRAL FLORIDA

CITY           SKY/WX    TMP DP  RH WIND       PRES   REMARKS
CRYSTAL RIVER  FAIR      75  73  94 CALM      29.98F
INVERNESS      PTSUNNY   77  73  88 CALM      30.00F
BROOKSVILLE    CLOUDY    77  74  90 E5        30.00S
ZEPHYRHILLS    PTSUNNY   72  72 100 NE3       30.00F
CLEARWATER     PTCLDY    80  76  87 E5        29.98S
TAMPA INTL     PTCLDY    80  73  79 E3        29.98F
TAMPA EXEC     CLEAR     77  73  88 CALM      29.99F
MACDILL AFB    CLEAR     78  77  99 SE7       29.98S
ST PETERSBURG    N/A    N/A N/A N/A MISG      29.96F
SARASOTA       CLEAR     78  76  93 SE6       29.96S
VENICE           N/A    N/A N/A N/A MISG        N/A

STATION/POSITION SKY/WX   TEMP    WIND        PRES    WAVE   SWELL
                          AIR SEA DIR/SP/G            HT/PER HT/PER
                          (F)     (DEG/KT/KT) (MB)    (FT/S) (FT/S)
CEDAR KEY                  82     130/ 15/ 16 1016.3S
28.5N   84.5W              86 86  130/  6/  8 1014.3S   2/ 6   2/ 6
27.3N   84.3W                 86                N/A     2/ 5
CLEARWATER BEACH           81 87  110/  4/  7 1014.7F
MIDDLE TAMPA BAY           79     130/  9/ 11 1015.3S
VENICE                     78 88  100/  4/  6 1014.8S

$$
FLZ066-069-070-075>078-162-262-165-265-291000-
SOUTHWEST FLORIDA AND KEYS

CITY           SKY/WX    TMP DP  RH WIND       PRES   REMARKS
PUNTA GORDA    CLEAR     77  75  93 E5        30.00S
FT MYERS       CLEAR     77  77 100 E5        29.98S
SOUTHWEST INTL CLEAR     76  75  97 E3        29.99R
NAPLES         PTCLDY    80  77  90 E5        29.98S
MARCO ISLAND   SUNNY     79  79 100 E3        29.98S
MARATHON       PTCLDY    85  78  80 SE7       29.98S HX  96
KEY WEST NAS   PTCLDY    84  76  76 SE6       29.98S
KEY WEST INTL  PTCLDY    85  76  74 SE7       29.98F

STATION/POSITION SKY/WX   TEMP    WIND        PRES    WAVE   SWELL
                          AIR SEA DIR/SP/G            HT/PER HT/PER
                          (F)     (DEG/KT/KT) (MB)    (FT/S) (FT/S)
VENICE                     78 88  100/  4/  6 1014.8S
NAPLES                     80     110/  4/  6 1015.7F
DRY TORTUGAS               84     150/ 10/ 12 1014.7F
NW FL BAY                  86     150/ 10/ 12 1015.4F
SAND KEY                   85     130/  9/ 11 1015.1F
SOMBRERO KEY               85     110/ 10/ 11 1016.0F
LONG KEY                   85 87  130/  9/ 10 1016.1R
MOLASSES REEF              85 87  110/  7/  8 1015.9R

$$
FLZ067-068-071>074-168-172>174-291000-
SOUTHEAST FLORIDA

CITY           SKY/WX    TMP DP  RH WIND       PRES   REMARKS
W PALM BEACH   MOCLDY    77  74  90 NW3       30.00R
FT LAUDER-EXEC CLEAR     80  78  94 CALM      30.00R
FT LAUDERDALE  PTCLDY    83  75  77 CALM      30.00R
POMPANO BEACH    N/A     85  75  72 SE3       30.00R
PEMBROKE PINES CLEAR     80  76  87 CALM      30.01R
OPA LOCKA      PTCLDY    81  75  82 CALM      30.01R
MIAMI          CLEAR     83  76  79 CALM      30.01R
WEST KENDALL   PTCLDY    77  74  90 CALM      30.01R
HOMESTEAD      CLEAR     79  76  91 W2        30.00R

STATION/POSITION SKY/WX   TEMP    WIND        PRES    WAVE   SWELL
                          AIR SEA DIR/SP/G            HT/PER HT/PER
                          (F)     (DEG/KT/KT) (MB)    (FT/S) (FT/S)
PORT EVERGLADES            85     150/  6/  8 1015.7
VIRGINIA KEY               85 86  140/  5/  8   N/A
LAKE WORTH                 85 87  160/  8/  9 1015.7S
FOWEY ROCKS                85 86  120/ 11/ 12 1016.2R
SETTLEMENT POINT           83     130/  5/  6 1017.1R

$$



USA.gov is the U.S. government's official web portal to all federal, state and local government web resources and services.